Location: Navarre
(52.9016°N, 113.4144°W)
Time: 16:28:19
(UTC+00:00)

Envisat - Visible Passes

Search period start: 01 December 2021 00:00
Search period end: 11 December 2021 00:00
Orbit: 764 x 766 km, 98.2° (Epoch: 01 December)

Date Brightness Start Highest point End Pass type
(mag) Time Alt. Az. Time Alt. Az. Time Alt. Az.
01 Dec 4.9 00:22:31 10° SSW 00:27:08 35° W 00:31:48 10° NNW visible
01 Dec 3.7 12:24:27 10° NNE 12:29:28 54° E 12:34:26 10° S visible
01 Dec 3.8 14:03:55 10° N 14:08:15 29° WNW 14:12:35 10° WSW visible
02 Dec 6.2 01:28:30 10° W 01:30:07 11° W 01:31:44 10° WNW visible
02 Dec 4.9 11:47:58 10° NNE 11:52:20 28° E 11:56:41 10° SSE visible
02 Dec 3.1 13:26:41 10° N 13:31:38 52° WNW 13:36:33 10° SW visible
03 Dec 5.6 00:48:46 10° SW 00:52:42 22° W 00:56:40 10° NW visible
03 Dec 5.8 11:12:10 10° NE 11:15:01 15° E 11:17:50 10° ESE visible
03 Dec 3.0 12:49:42 10° NNE 12:54:50 84° ESE 12:59:56 10° SSW visible
03 Dec 4.2 14:29:38 10° N 14:33:16 20° NW 14:36:54 10° W visible
04 Dec 4.5 00:10:42 10° SSW 00:15:31 42° W 00:20:21 10° NNW visible
04 Dec 4.1 12:12:58 10° NNE 12:17:50 44° E 12:22:41 10° S visible
04 Dec 3.6 13:52:13 10° N 13:56:47 34° WNW 14:01:20 10° SW visible
05 Dec 6.0 01:15:42 10° WSW 01:18:22 14° W 01:21:03 10° NW visible
05 Dec 5.2 11:36:37 10° NE 11:40:40 23° E 11:44:41 10° SE visible
05 Dec 2.9 13:15:04 10° N 13:20:07 63° WNW 13:25:08 10° SSW visible
06 Dec 5.3 00:36:45 10° SSW 00:41:01 27° W 00:45:20 10° NW visible
06 Dec 6.0 11:01:23 10° ENE 11:03:16 12° E 11:05:09 10° ESE visible
06 Dec 3.2 12:38:09 10° NNE 12:43:16 70° ESE 12:48:19 10° S visible
06 Dec 4.0 14:17:52 10° N 14:21:51 24° WNW 14:25:49 10° WSW visible
06 Dec 4.0 23:58:57 10° S 00:03:53 51° W 00:08:52 10° NNW visible
07 Dec 4.4 12:01:31 10° NNE 12:06:13 36° E 12:10:53 10° SSE visible
07 Dec 3.3 13:40:33 10° N 13:45:19 41° WNW 13:50:03 10° SW visible
08 Dec 5.9 01:03:18 10° SW 01:06:38 17° W 01:09:59 10° NW visible
08 Dec 5.5 11:25:21 10° NE 11:28:58 19° E 11:32:33 10° SE visible
08 Dec 2.8 13:03:28 10° NNE 13:08:35 77° WNW 13:13:39 10° SSW visible
08 Dec 4.4 14:43:44 10° NNW 14:46:50 16° NW 14:49:54 10° W visible
09 Dec 4.9 00:24:48 10° SSW 00:29:22 33° W 00:33:57 10° NNW visible
09 Dec 3.6 12:26:38 10° NNE 12:31:40 57° E 12:36:39 10° S visible
09 Dec 3.8 14:06:08 10° N 14:10:24 28° WNW 14:14:40 10° WSW visible
10 Dec 6.3 01:31:17 10° W 01:32:21 11° W 01:33:26 10° WNW visible
10 Dec 4.8 11:50:06 10° NNE 11:54:34 30° E 11:59:00 10° SSE visible
10 Dec 3.1 13:28:54 10° N 13:33:48 49° WNW 13:38:41 10° SW visible
